Weather History for Juliana Airport, St. Martin

Change the Weather History Date:

Thursday, March 21, 2013

  Actual Average Record
Temperature  
Mean Temperature 79 °F -  
Max Temperature 82 °F 83 °F 86 °F (2003)
Min Temperature 76 °F 73 °F 69 °F (2003)
Cooling Degree Days 14    
Growing Degree Days 29 (Base 50)    
Moisture  
Dew Point 71 °F    
Average Humidity 75    
Maximum Humidity 89    
Minimum Humidity 62    
Precipitation  
Precipitation 0.00 in 0.08 in - ()
Sea Level Pressure  
Sea Level Pressure 29.94 in    
Wind  
Wind Speed 9 mph ()    
Max Wind Speed 14 mph    
Max Gust Speed -    
Visibility 6.2 miles    
Events      
Averages and records for this station are not official NWS values.
T = Trace of Precipitation, MM = Missing Value Source: Averaged Metar Reports

Daily Weather History Graph

Daily Weather History Graph

Search for Another Location

Airport:

Trip Planner

Search our weather history database for the weather conditions in past years. The results will help you decide how hot, cold, wet, or windy it might be!

Date:

Astronomy

Mar. 21, 2013 Rise Set
Actual Time 6:15 AM AST 6:23 PM AST
Civil Twilight 5:53 AM AST 6:45 PM AST
Nautical Twilight 5:28 AM AST 7:10 PM AST
Astronomical Twilight 5:03 AM AST 7:36 PM AST
Moon 1:29 PM AST 1:52 AM AST
Length of Visible Light 12h 51m
Length of Day
12h 08m
Waxing Gibbous, 68% of the Moon is Illuminated
Mar 21
Waxing Gibbous
Mar 27
Full
Apr 3
Last Quarter
Apr 10
New
Apr 18
First Quarter

Hourly Weather History & Observations

Time (AST) Temp. Heat Index Dew Point Humidity Pressure Visibility Wind Dir Wind Speed Gust Speed Precip Events Conditions
12:00 AM 77.0 °F - 68.0 °F 74% 29.95 in 6.2 mi ESE 8.1 mph - N/A   Scattered Clouds
1:00 AM 77.0 °F - 68.0 °F 74% 29.92 in 6.2 mi ESE 9.2 mph - N/A   Mostly Cloudy
2:00 AM 77 °F - 68 °F 66% 29.91 in 28 mi SE 10.4 mph - -   Scattered Clouds
2:00 AM 77.0 °F - 68.0 °F 74% 29.89 in 6.2 mi ESE 10.4 mph - N/A   Partly Cloudy
3:00 AM 77.0 °F - 68.0 °F 74% 29.89 in 6.2 mi ESE 10.4 mph - N/A   Partly Cloudy
4:00 AM 77.0 °F - 68.0 °F 74% 29.89 in 6.2 mi ESE 10.4 mph - N/A   Partly Cloudy
5:00 AM 77 °F - 68 °F 67% 29.90 in 28 mi SE 10.4 mph - -   Scattered Clouds
5:00 AM 77.0 °F - 68.0 °F 74% 29.89 in 6.2 mi ESE 9.2 mph - N/A   Partly Cloudy
6:00 AM 77.0 °F - 68.0 °F 74% 29.92 in 6.2 mi ESE 8.1 mph - N/A   Partly Cloudy
7:00 AM 77.0 °F - 69.8 °F 78% 29.92 in 6.2 mi SE 9.2 mph - N/A   Partly Cloudy
8:00 AM 79 °F - 69 °F 64% 29.97 in 31 mi SSE 12.7 mph - -   Scattered Clouds
8:00 AM 78.8 °F - 69.8 °F 74% 29.95 in 6.2 mi SSE 12.7 mph - N/A   Partly Cloudy
9:00 AM 80.6 °F 83.9 °F 69.8 °F 70% 29.98 in 6.2 mi SE 13.8 mph - N/A   Partly Cloudy
10:00 AM 80.6 °F 83.9 °F 69.8 °F 70% 29.98 in 6.2 mi SE 13.8 mph - N/A   Partly Cloudy
11:00 AM 82 °F - 71 °F 62% 30.01 in 31 mi SE 11.5 mph - -   Scattered Clouds
11:00 AM 82.4 °F 87.2 °F 71.6 °F 70% 30.01 in 6.2 mi SE 11.5 mph - N/A   Partly Cloudy
12:00 PM 80.6 °F 84.6 °F 71.6 °F 74% 29.98 in 6.2 mi SE 9.2 mph - N/A   Partly Cloudy
1:00 PM 82.4 °F 87.2 °F 71.6 °F 70% 29.95 in 6.2 mi SE 10.4 mph - N/A   Partly Cloudy
2:00 PM 82 °F - 72 °F 66% 29.94 in 31 mi SE 11.5 mph - -   Partly Cloudy
2:00 PM 82.4 °F 88.2 °F 73.4 °F 74% 29.92 in 6.2 mi SE 11.5 mph - N/A   Scattered Clouds
3:00 PM 82.4 °F 88.2 °F 73.4 °F 74% 29.92 in 6.2 mi SE 12.7 mph - N/A   Mostly Cloudy
4:00 PM 82.4 °F 88.2 °F 73.4 °F 74% 29.89 in 6.2 mi SE 10.4 mph - N/A   Partly Cloudy
5:00 PM 81 °F - 73 °F 70% 29.92 in 31 mi SSE 10.4 mph - -   Mostly Cloudy
5:00 PM 80.6 °F 85.4 °F 73.4 °F 79% 29.89 in 6.2 mi SE 10.4 mph - N/A   Mostly Cloudy
6:00 PM 78.8 °F - 73.4 °F 83% 29.92 in 6.2 mi SE 10.4 mph - N/A   Scattered Clouds
7:00 PM 78.8 °F - 73.4 °F 83% 29.92 in 6.2 mi SSE 10.4 mph - N/A   Partly Cloudy
8:00 PM 79 °F - 74 °F 79% 29.96 in 31 mi SSE 9.2 mph - -   Partly Cloudy
8:00 PM 78.8 °F - 73.4 °F 83% 29.95 in 6.2 mi SSE 9.2 mph - N/A   Scattered Clouds
9:00 PM 78.8 °F - 75.2 °F 89% 29.95 in 6.2 mi SE 10.4 mph - N/A   Partly Cloudy
10:00 PM 78.8 °F - 75.2 °F 89% 29.98 in 6.2 mi SE 11.5 mph - N/A   Scattered Clouds
11:00 PM 79 °F - 75 °F 83% 29.99 in 31 mi SE 9.2 mph - -   Partly Cloudy
11:00 PM 78.8 °F - 75.2 °F 89% 29.98 in 6.2 mi SE 9.2 mph - N/A   Scattered Clouds